Location: Cypress Hills Dark-Sky Preserve - CHICO
(49.6176°N, 110.2634°W)
Time: 03:12:29
(UTC-06:00)

Amateur Radio Satellites - All Passes

Search period start: 02 September 2014 02:42
Search period end: 03 September 2014 02:42
Location: Cypress Hills Dark-Sky Preserve - CHICO, 49.6176°N, 110.2634°W

Satellite Date Start Highest point End Downlink Frequencies (MHz)
Time Altitude Azimuth
Oscar 16 02 Sep 02:52:51 02:58:02 60° 101° (ESE) 03:03:09 437.025 USB, Beacon 2401.1428
ITAMSAT 1 02 Sep 02:55:47 03:00:19 29° 94° (E) 03:04:49 435.822 SSB
SO-50 02 Sep 03:03:54 03:06:49 17° 112° (ESE) 03:09:47 436.795 FM
Uribyol 2 02 Sep 03:04:57 03:09:45 37° 97° (E) 03:14:33 436.500 FM
KITSAT 1 02 Sep 03:13:43 03:20:35 29° 341° (NNW) 03:27:27 435.175 FM
TMSAT-1 02 Sep 03:18:27 03:22:01 18° 89° (E) 03:25:35 436.925 FM
JAS-1B 02 Sep 03:21:45 03:28:19 46° 96° (E) 03:34:00 435.800 - 435.900 CW/SSB
AO-27 02 Sep 03:25:12 03:30:17 52° 100° (E) 03:35:21 436.795 MHz FM
Saudisat 1A 02 Sep 03:26:07 03:27:45 12° 3° (N) 03:29:24 436.775 MHz
Sapphire 02 Sep 03:29:43 03:33:30 20° 253° (WSW) 03:37:16 437.095 MHz 1200 baud AX-25 AFSK
Oscar 19 02 Sep 03:56:59 04:01:55 44° 293° (WNW) 04:06:50 437.125 CW, 437.150 USB
OPAL 02 Sep 03:59:16 04:04:00 41° 63° (ENE) 04:08:50 ?
PCSat 02 Sep 04:01:35 04:02:15 10° 259° (W) 04:02:54 145.825 MHz
AO-Echo 02 Sep 04:04:29 04:09:10 66° 288° (WNW) 04:13:50 ?
Gurwin Techsat 1B 02 Sep 04:07:19 04:12:35 58° 101° (E) 04:17:48 435.225 FM
Oscar 16 02 Sep 04:32:53 04:37:01 24° 301° (WNW) 04:41:08 437.025 USB, Beacon 2401.1428
ITAMSAT 1 02 Sep 04:35:03 04:39:59 45° 293° (WNW) 04:44:55 435.822 SSB
SO-50 02 Sep 04:42:17 04:46:48 78° 311° (NW) 04:51:27 436.795 FM
Uribyol 2 02 Sep 04:44:30 04:49:14 37° 296° (WNW) 04:53:59 436.500 FM
UOSAT-12 02 Sep 04:49:29 04:52:25 17° 111° (ESE) 04:55:23 437.025 FM, 437.400 FM
TMSAT-1 02 Sep 04:57:14 05:02:33 76° 288° (WNW) 05:07:50 436.925 FM
Uosat F 02 Sep 04:57:24 05:01:34 26° 93° (E) 05:05:42 435.120 FM
AO-27 02 Sep 05:05:14 05:09:33 27° 299° (WNW) 05:13:52 436.795 MHz FM
Saudisat 1A 02 Sep 05:05:41 05:09:00 20° 27° (NNE) 05:12:19 436.775 MHz
KITSAT 1 02 Sep 05:12:16 05:18:50 26° 11° (N) 05:25:22 435.175 FM
JAS-1B 02 Sep 05:12:35 05:18:52 37° 301° (WNW) 05:24:22 435.800 - 435.900 CW/SSB
AO-7 02 Sep 05:25:18 05:33:17 48° 100° (E) 05:41:12 29.400 - 29.500 MHz
OPAL 02 Sep 05:38:22 05:42:58 34° 262° (W) 05:47:39 ?
AO-Echo 02 Sep 05:45:46 05:47:04 11° 308° (NW) 05:48:23 ?
Gurwin Techsat 1B 02 Sep 05:47:55 05:52:13 26° 300° (WNW) 05:56:30 435.225 FM
STRAND 1 02 Sep 05:48:27 05:52:15 22° 58° (ENE) 05:56:04 ?
Hamsat 02 Sep 06:00:02 06:01:29 11° 86° (E) 06:02:55 145.90 MHz
JAS-2 02 Sep 06:13:47 06:17:22 18° 90° (E) 06:21:04 435.800 - 435.900 CW/SSB, 435.910 FM
SO-50 02 Sep 06:24:35 06:28:07 21° 334° (NNW) 06:31:43 436.795 FM
UOSAT-12 02 Sep 06:27:18 06:31:58 83° 311° (NW) 06:36:44 437.025 FM, 437.400 FM
Uosat F 02 Sep 06:35:47 06:40:37 49° 292° (WNW) 06:45:25 435.120 FM
TMSAT-1 02 Sep 06:38:46 06:41:38 15° 307° (NW) 06:44:29 436.925 FM
Saudisat 1A 02 Sep 06:44:51 06:49:18 76° 49° (NE) 06:53:43 436.775 MHz
KITSAT 1 02 Sep 07:08:35 07:16:23 48° 38° (NE) 07:24:08 435.175 FM
AO-7 02 Sep 07:18:16 07:26:08 50° 302° (WNW) 07:33:58 29.400 - 29.500 MHz
STRAND 1 02 Sep 07:25:56 07:31:00 67° 257° (WSW) 07:36:06 ?
Hamsat 02 Sep 07:33:43 07:38:06 88° 284° (WNW) 07:42:26 145.90 MHz
RS-15 02 Sep 07:35:20 07:45:29 45° 112° (ESE) 07:55:30 29.354 - 29.394 USB, Beacon 29.352 USB
JAS-2 02 Sep 07:57:49 08:03:02 73° 288° (WNW) 08:08:37 435.800 - 435.900 CW/SSB, 435.910 FM
SO-50 02 Sep 08:08:13 08:10:24 13° 358° (N) 08:12:37 436.795 FM
UOSAT-12 02 Sep 08:09:04 08:12:49 23° 332° (NNW) 08:16:35 437.025 FM, 437.400 FM
SO-67 02 Sep 08:10:04 08:13:18 35° 97° (E) 08:16:30 435.3500 MHz FM
Saudisat 1A 02 Sep 08:25:30 08:28:22 17° 248° (WSW) 08:31:12 436.775 MHz
KITSAT 1 02 Sep 09:04:11 09:12:05 59° 242° (WSW) 09:19:55 435.175 FM
Hamsat 02 Sep 09:11:24 09:13:24 13° 303° (WNW) 09:15:23 145.90 MHz
AO-7 02 Sep 09:12:22 09:17:04 17° 325° (NW) 09:21:45 29.400 - 29.500 MHz
UKube-1 02 Sep 09:34:57 09:36:11 11° 87° (E) 09:37:26 145.840 MHz, 145.915 MHz
SO-67 02 Sep 09:43:38 09:46:08 19° 295° (WNW) 09:48:38 435.3500 MHz FM
JAS-2 02 Sep 09:44:56 09:47:23 13° 308° (NW) 09:49:52 435.800 - 435.900 CW/SSB, 435.910 FM
RS-15 02 Sep 09:46:23 09:57:21 69° 317° (NW) 10:08:20 29.354 - 29.394 USB, Beacon 29.352 USB
SO-50 02 Sep 09:49:23 09:52:46 19° 23° (NNE) 09:56:12 436.795 FM
HO-68 02 Sep 09:50:03 09:56:37 37° 96° (E) 10:03:08 435.675 MHz FM
UOSAT-12 02 Sep 09:52:20 09:54:39 13° 357° (N) 09:56:58 437.025 FM, 437.400 FM
ISS 02 Sep 10:56:59 11:00:06 38° 149° (SSE) 11:03:14 145.800 FM
KITSAT 1 02 Sep 11:02:25 11:05:46 13° 263° (W) 11:09:06 435.175 FM
UKube-1 02 Sep 11:08:41 11:13:04 89° 106° (ESE) 11:17:25 145.840 MHz, 145.915 MHz
Oscar 11 02 Sep 11:11:45 11:16:08 69° 102° (ESE) 11:20:29 145.825 FM, Beacon 2401.500 USB
SO-50 02 Sep 11:29:34 11:34:16 59° 45° (NE) 11:39:03 436.795 FM
UOSAT-12 02 Sep 11:33:20 11:36:38 18° 21° (NNE) 11:39:56 437.025 FM, 437.400 FM
HO-68 02 Sep 11:37:39 11:44:35 55° 296° (WNW) 11:51:30 435.675 MHz FM
FUNcube-1 02 Sep 11:45:10 11:49:42 65° 102° (ESE) 11:54:16 145.950 - 145.970 MHz USB
RS-15 02 Sep 12:01:57 12:11:57 38° 349° (NNW) 12:22:05 29.354 - 29.394 USB, Beacon 29.352 USB
Oscar 19 02 Sep 12:03:20 12:05:35 13° 51° (NE) 12:07:50 437.125 CW, 437.150 USB
JAS-1B 02 Sep 12:21:54 12:28:06 21° 48° (NE) 12:33:44 435.800 - 435.900 CW/SSB
MaSat-1 02 Sep 12:32:48 12:36:38 22° 105° (ESE) 12:40:33 437.345 MHz
ISS 02 Sep 12:33:25 12:36:44 70° 348° (NNW) 12:40:05 145.800 FM
Oscar 16 02 Sep 12:36:32 12:40:31 23° 59° (ENE) 12:44:32 437.025 USB, Beacon 2401.1428
ITAMSAT 1 02 Sep 12:42:12 12:44:33 13° 51° (NE) 12:46:53 435.822 SSB
UKube-1 02 Sep 12:46:29 12:48:38 14° 304° (NW) 12:50:47 145.840 MHz, 145.915 MHz
Oscar 11 02 Sep 12:49:03 12:51:50 17° 301° (WNW) 12:54:37 145.825 FM, Beacon 2401.500 USB
Uribyol 2 02 Sep 12:50:33 12:53:35 16° 54° (NE) 12:56:37 436.500 FM
AO-7 02 Sep 12:54:07 12:55:16 10° 21° (NNE) 12:56:24 29.400 - 29.500 MHz
AO-27 02 Sep 13:10:11 13:14:00 21° 58° (ENE) 13:17:50 436.795 MHz FM
SO-50 02 Sep 13:10:37 13:14:34 26° 244° (WSW) 13:18:33 436.795 FM
UOSAT-12 02 Sep 13:13:08 13:17:48 54° 44° (NE) 13:22:25 437.025 FM, 437.400 FM
FUNcube-1 02 Sep 13:22:30 13:25:40 19° 300° (WNW) 13:28:51 145.950 - 145.970 MHz USB
HO-68 02 Sep 13:26:59 13:30:49 16° 319° (NW) 13:34:40 435.675 MHz FM
Oscar 19 02 Sep 13:38:51 13:43:59 66° 71° (ENE) 13:49:09 437.125 CW, 437.150 USB
AO-Echo 02 Sep 13:43:31 13:48:02 37° 66° (ENE) 13:52:27 ?
Gurwin Techsat 1B 02 Sep 13:54:32 13:58:43 24° 59° (ENE) 14:02:54 435.225 FM
JAS-1B 02 Sep 14:08:01 14:17:26 67° 68° (ENE) 14:25:37 435.800 - 435.900 CW/SSB
MaSat-1 02 Sep 14:08:09 14:13:12 67° 304° (NW) 14:18:21 437.345 MHz
ISS 02 Sep 14:10:22 14:13:41 64° 9° (N) 14:17:00 145.800 FM
Oscar 16 02 Sep 14:14:20 14:19:28 64° 258° (WSW) 14:24:39 437.025 USB, Beacon 2401.1428
RS-15 02 Sep 14:17:17 14:27:37 43° 22° (NNE) 14:38:12 29.354 - 29.394 USB, Beacon 29.352 USB
ITAMSAT 1 02 Sep 14:18:01 14:23:08 68° 71° (ENE) 14:28:17 435.822 SSB
Uribyol 2 02 Sep 14:27:09 14:32:19 84° 73° (ENE) 14:37:31 436.500 FM
AO-7 02 Sep 14:38:37 14:45:17 28° 47° (NE) 14:51:56 29.400 - 29.500 MHz
Uosat F 02 Sep 14:40:48 14:41:51 11° 49° (NE) 14:42:54 435.120 FM
TMSAT-1 02 Sep 14:43:06 14:48:03 42° 66° (ENE) 14:53:01 436.925 FM
AO-27 02 Sep 14:47:53 14:53:03 70° 257° (WSW) 14:58:14 436.795 MHz FM
UOSAT-12 02 Sep 14:53:43 14:57:44 28° 244° (WSW) 15:01:42 437.025 FM, 437.400 FM
Oscar 19 02 Sep 15:20:01 15:23:48 20° 270° (W) 15:27:37 437.125 CW, 437.150 USB
AO-Echo 02 Sep 15:22:24 15:26:52 33° 264° (W) 15:31:14 ?
Gurwin Techsat 1B 02 Sep 15:33:03 15:38:18 62° 258° (WSW) 15:43:35 435.225 FM
ISS 02 Sep 15:47:10 15:50:24 48° 208° (SSW) 15:53:38 145.800 FM
MaSat-1 02 Sep 15:47:38 15:51:09 18° 325° (NW) 15:54:38 437.345 MHz
ITAMSAT 1 02 Sep 15:59:27 16:03:08 20° 270° (W) 16:06:51 435.822 SSB
JAS-1B 02 Sep 15:59:37 16:08:17 38° 266° (W) 16:16:04 435.800 - 435.900 CW/SSB
Uribyol 2 02 Sep 16:09:28 16:12:29 16° 272° (W) 16:15:31 436.500 FM
Uosat F 02 Sep 16:14:43 16:19:36 56° 69° (ENE) 16:24:31 435.120 FM
TMSAT-1 02 Sep 16:23:21 16:28:05 33° 265° (W) 16:32:51 436.925 FM
AO-7 02 Sep 16:28:47 16:37:09 88° 69° (ENE) 16:45:31 29.400 - 29.500 MHz
RS-15 02 Sep 16:30:21 16:41:26 89° 51° (NE) 16:52:56 29.354 - 29.394 USB, Beacon 29.352 USB
Sapphire 02 Sep 16:32:00 16:36:36 29° 111° (ESE) 16:41:13 437.095 MHz 1200 baud AX-25 AFSK
AO-27 02 Sep 16:32:36 16:33:32 10° 276° (W) 16:34:28 436.795 MHz FM
JAS-2 02 Sep 16:32:44 16:35:46 15° 54° (NE) 16:38:42 435.800 - 435.900 CW/SSB, 435.910 FM
Hamsat 02 Sep 16:57:14 16:59:53 16° 59° (ENE) 17:02:32 145.90 MHz
PCSat 02 Sep 17:00:20 17:05:32 50° 117° (ESE) 17:10:47 145.825 MHz
ISS 02 Sep 17:25:54 17:26:30 10° 226° (SW) 17:27:05 145.800 FM
OPAL 02 Sep 17:43:10 17:48:11 45° 101° (E) 17:53:09 ?
Uosat F 02 Sep 17:54:50 17:58:45 23° 268° (W) 18:02:41 435.120 FM
JAS-2 02 Sep 18:14:20 18:20:12 79° 73° (ENE) 18:25:33 435.800 - 435.900 CW/SSB, 435.910 FM
Sapphire 02 Sep 18:14:25 18:19:45 57° 311° (NW) 18:25:07 437.095 MHz 1200 baud AX-25 AFSK
AO-7 02 Sep 18:24:35 18:30:59 24° 270° (W) 18:37:26 29.400 - 29.500 MHz
Hamsat 02 Sep 18:30:59 18:35:19 73° 258° (WSW) 18:39:43 145.90 MHz
HO-68 02 Sep 18:40:52 18:43:48 13° 38° (NE) 18:46:45 435.675 MHz FM
RS-15 02 Sep 18:43:31 18:52:32 31° 255° (WSW) 19:01:51 29.354 - 29.394 USB, Beacon 29.352 USB
PCSat 02 Sep 18:44:09 18:49:09 37° 318° (NW) 18:54:12 145.825 MHz
SO-67 02 Sep 18:47:29 18:50:22 25° 67° (ENE) 18:53:16 435.3500 MHz FM
OPAL 02 Sep 19:22:19 19:26:56 33° 300° (WNW) 19:31:31 ?
STRAND 1 02 Sep 19:32:21 19:36:49 30° 95° (E) 19:41:16 ?
Sapphire 02 Sep 20:00:36 20:04:22 19° 335° (NNW) 20:08:09 437.095 MHz 1200 baud AX-25 AFSK
JAS-2 02 Sep 20:02:09 20:05:53 17° 270° (W) 20:09:27 435.800 - 435.900 CW/SSB, 435.910 FM
SO-67 02 Sep 20:20:25 20:23:22 26° 265° (W) 20:26:21 435.3500 MHz FM
HO-68 02 Sep 20:23:08 20:29:48 45° 61° (ENE) 20:36:30 435.675 MHz FM
PCSat 02 Sep 20:31:08 20:34:11 15° 343° (NNW) 20:37:15 145.825 MHz
UKube-1 02 Sep 20:33:49 20:36:51 19° 59° (ENE) 20:39:53 145.840 MHz, 145.915 MHz
Oscar 11 02 Sep 20:37:26 20:39:37 14° 57° (ENE) 20:41:48 145.825 FM, Beacon 2401.500 USB
MaSat-1 02 Sep 20:45:11 20:48:45 20° 37° (NE) 20:52:03 437.345 MHz
STRAND 1 02 Sep 21:11:20 21:16:10 44° 293° (WNW) 21:20:59 ?
FUNcube-1 02 Sep 21:12:36 21:14:25 13° 56° (NE) 21:16:16 145.950 - 145.970 MHz USB
Sapphire 02 Sep 21:47:53 21:50:04 12° 1° (N) 21:52:15 437.095 MHz 1200 baud AX-25 AFSK
KITSAT 1 02 Sep 21:47:53 21:50:38 12° 96° (E) 21:53:23 435.175 FM
UKube-1 02 Sep 22:08:22 22:12:40 60° 258° (WSW) 22:16:59 145.840 MHz, 145.915 MHz
HO-68 02 Sep 22:10:44 22:17:32 46° 261° (W) 22:24:23 435.675 MHz FM
Oscar 11 02 Sep 22:10:49 22:15:10 88° 256° (WSW) 22:19:34 145.825 FM, Beacon 2401.500 USB
PCSat 02 Sep 22:17:30 22:20:01 13° 10° (N) 22:22:32 145.825 MHz
MaSat-1 02 Sep 22:21:44 22:26:27 83° 240° (WSW) 22:30:31 437.345 MHz
Saudisat 1A 02 Sep 22:34:32 22:38:42 43° 122° (ESE) 22:42:54 436.775 MHz
FUNcube-1 02 Sep 22:45:53 22:50:07 87° 75° (ENE) 22:54:29 145.950 - 145.970 MHz USB
Sapphire 02 Sep 23:31:45 23:35:43 20° 27° (NNE) 23:39:40 437.095 MHz 1200 baud AX-25 AFSK
KITSAT 1 02 Sep 23:36:26 23:44:15 56° 117° (ESE) 23:52:06 435.175 FM
Oscar 11 02 Sep 23:50:53 23:52:02 11° 274° (W) 23:53:12 145.825 FM, Beacon 2401.500 USB
PCSat 03 Sep 00:00:46 00:05:22 27° 35° (NE) 00:09:57 145.825 MHz
MaSat-1 03 Sep 00:01:25 00:02:24 11° 263° (W) 00:03:23 437.345 MHz
Saudisat 1A 03 Sep 00:14:19 00:18:23 35° 322° (NW) 00:22:29 436.775 MHz
FUNcube-1 03 Sep 00:25:53 00:27:12 11° 274° (W) 00:28:32 145.950 - 145.970 MHz USB
Sapphire 03 Sep 01:14:48 01:20:13 64° 50° (NE) 01:25:36 437.095 MHz 1200 baud AX-25 AFSK
KITSAT 1 03 Sep 01:32:02 01:39:51 50° 320° (NW) 01:47:43 435.175 FM
PCSat 03 Sep 01:43:56 01:49:24 80° 237° (WSW) 01:54:49 145.825 MHz
Oscar 19 03 Sep 01:47:10 01:50:30 17° 88° (E) 01:53:49 437.125 CW, 437.150 USB
Saudisat 1A 03 Sep 01:56:52 01:59:13 14° 345° (NNW) 02:01:34 436.775 MHz
Oscar 16 03 Sep 02:21:47 02:26:29 33° 95° (E) 02:31:10 437.025 USB, Beacon 2401.1428
ITAMSAT 1 03 Sep 02:27:31 02:30:54 17° 89° (E) 02:34:17 435.822 SSB
